Погода в Солнечногорском

Россия / Республика Крым     44°44′53″N   34°32′24″E
темп.,
°C
ветер,
м/с
пор.,
м/с
влажн.,
%
обл.,
%
осадки,
мм/ч
давл.,
гПа
погр.,
м
9 мая, вс
вс900:00+10сз91280100 0.4 1013680
03:00+8сз81279100 0.5 1016827
06:00+7сз6978100 0.0 1018731
09:00+8сз69604 0.0 10201150
12:00+11сз784531 0.1 10222043
15:00+12сз784036 0.1 10231531
18:00+11ссз574249 0.0 10241126
21:00+9зсз445945 0.0 1027116
10 мая, пн
пн1000:00+7зсз557025 0.0 1028136
03:00+7сз55692 0.0 1027136
06:00+7сз45733 0.0 1027124
09:00+11сз355023 0.1 10271329
12:00+12ююз244664 0.0 10261253
15:00+12ю144994 0.0 10241176
18:00+10ююв436592 0.0 1024548
21:00+8юз22735 0.1 1024202
11 мая, вт
вт1100:00+8зсз336913 0.0 1022167
03:00+8зсз556831 0.0 1020111
06:00+7зсз567899 0.0 1018226
09:00+10зсз5858100 0.0 1017984
12:00+10зсз566399 0.0 1016801
15:00+9сз5576100 0.1 1015335
18:00+9сз3479100 0.1 1015242
21:00+10зсз1280100 0.1 1014123
12 мая, ср
ср1200:00+9ююз1187100 0.6 1014148
03:00+9юз1191100 1.7 101283
06:00+9вюв2295100 0.6 1013120
09:00+9в2295100 1.8 1013178
12:00+10ююв129052 0.0 1014244
15:00+11ю128673 0.1 1014370
18:00+12ююв217924 0.0 1014250
21:00+10ссв1185100 0.0 101461
13 мая, чт
чт1300:00+10св118022 0.0 101371
03:00+10св127656 0.0 101230
06:00+12ссв126262 0.0 101212
09:00+15вюв1251100 0.0 1011146
12:00+16вюв14514 0.0 1011301
15:00+17вюв13481 0.0 1011251
18:00+17всв12512 0.0 1010109
21:00+15юв11545 0.0 101111